GFSCGP_sfc_wetblb_000.txt.gz
Wetbulb
45.36 44.74 42.89 45.46 46.10 45.49 42.91 41.76 41.92 44.94 42.27 41.35 41.87 41.86 43.83 46.19 45.97 46.17 46.51 47.38 45.60 42.91 44.51 43.89 41.98 40.51 39.26 39.84 39.47 39.46 39.18 39.83 39.66 39.15 38.51 38.43 38.51 38.60 38.18 38.44 36.75 36.38 35.87 35.47
43.18 41.31 46.46 43.84 43.11 42.12 41.85 41.79 42.29 43.76 40.06 38.87 40.45 38.99 42.59 44.11 44.81 45.99 46.35 47.42 46.69 43.65 43.08 41.89 40.09 38.99 38.49 38.77 38.81 38.93 38.90 39.18 38.81 38.35 37.39 37.54 36.97 37.23 37.05 37.26 36.60 36.06 34.96 34.61
42.32 44.32 41.53 42.05 40.93 40.07 41.21 41.04 42.42 39.97 39.14 38.78 36.87 38.42 39.18 42.17 42.12 43.47 44.64 45.70 45.92 43.63 42.14 40.39 38.41 38.09 37.77 37.63 38.17 38.35 38.54 38.23 37.83 37.00 35.96 35.07 35.06 34.87 34.75 35.61 35.83 35.16 34.16 33.67
42.14 43.05 41.53 40.94 40.98 41.86 39.57 42.42 40.35 38.19 37.13 36.32 37.31 33.34 40.47 41.36 40.99 42.76 45.62 44.48 42.95 42.37 41.66 40.50 38.32 37.21 36.95 38.01 39.02 38.36 37.79 36.92 36.56 36.10 34.85 34.21 34.44 33.98 35.08 34.36 34.17 33.85 33.82 32.89
41.93 38.48 38.83 39.50 41.46 41.84 40.90 38.36 37.86 36.54 36.32 33.06 37.45 32.08 38.68 36.04 38.02 41.94 45.29 46.56 44.47 44.35 42.26 40.64 38.26 37.74 37.53 38.22 38.31 37.85 37.18 36.18 35.63 35.36 35.00 34.24 33.13 33.43 33.69 32.48 31.68 32.19 32.51 32.47
41.16 40.20 40.79 42.12 36.77 38.35 37.01 37.05 35.59 33.71 33.99 30.07 37.21 34.95 37.32 39.13 40.11 42.27 45.05 44.96 44.13 43.04 42.58 42.14 40.12 38.20 37.24 37.81 37.53 37.19 36.12 35.08 35.04 34.75 34.24 33.29 32.51 32.02 30.92 30.71 30.22 30.80 31.13 31.01
38.76 38.58 38.86 39.16 38.21 37.65 37.48 38.11 34.64 34.15 30.82 31.82 33.80 31.51 36.83 41.15 42.79 43.00 44.99 46.70 43.66 43.12 41.65 40.33 37.80 36.42 36.15 36.12 36.60 36.47 35.59 34.08 34.11 33.60 33.16 32.34 31.62 30.82 29.74 29.45 29.14 28.75 28.82 29.20
36.97 36.00 35.97 39.30 41.59 41.02 36.39 39.33 35.46 29.68 30.95 33.79 29.29 29.31 38.32 42.06 43.80 44.59 42.08 42.43 40.47 40.95 40.90 39.49 38.21 37.21 36.40 35.53 35.93 35.51 34.99 33.82 33.02 32.52 31.78 31.26 30.39 29.41 28.84 28.33 27.80 27.19 27.10 27.71
35.88 37.21 35.85 35.51 37.20 40.20 34.66 33.70 39.07 35.13 25.46 28.44 35.95 39.92 41.75 40.55 39.93 39.93 40.49 41.06 41.49 41.00 39.90 38.97 38.46 37.50 35.86 35.56 35.65 35.47 34.77 33.88 32.20 31.28 30.60 29.27 28.52 27.26 26.94 26.65 26.15 25.97 26.56 25.86
40.69 34.64 35.80 32.94 36.00 34.64 34.89 37.56 32.16 34.18 29.11 28.05 33.63 35.67 36.43 39.63 40.08 40.26 39.23 40.37 42.78 41.93 40.57 38.73 37.37 36.59 36.34 36.13 36.21 35.87 35.07 33.23 31.52 30.31 29.30 28.01 26.79 26.10 25.58 24.98 24.42 24.71 24.83 24.21
40.34 37.97 34.36 33.96 33.22 34.98 32.11 33.37 32.78 33.46 32.51 30.13 28.85 33.90 38.85 39.51 41.96 41.11 42.37 43.84 44.47 43.10 41.40 39.68 37.60 37.32 36.84 36.60 35.58 35.18 34.07 32.02 29.60 28.51 27.29 26.08 25.03 24.20 23.72 23.23 23.52 22.97 22.57 22.18
40.09 37.85 35.00 36.58 34.06 34.02 37.26 36.75 36.46 31.90 30.14 31.49 32.80 33.75 40.90 41.75 42.78 42.28 43.27 42.60 43.36 43.13 43.56 41.63 38.65 36.89 35.52 35.08 34.87 33.68 32.67 29.81 28.61 27.32 25.60 24.46 23.66 22.64 22.14 22.33 21.99 21.29 20.11 20.39
37.96 34.25 31.59 34.05 31.42 31.07 32.45 34.06 35.25 37.18 35.80 31.52 29.25 32.26 42.19 42.91 41.64 41.30 42.03 43.53 42.23 41.92 42.23 39.89 37.59 35.65 35.07 34.50 33.04 32.58 30.99 28.79 27.01 24.95 23.79 22.61 21.94 21.44 21.01 20.29 19.81 19.06 18.53 18.10
41.30 35.69 34.83 31.38 35.13 33.72 31.93 33.36 33.78 34.14 31.06 32.08 32.62 35.34 39.65 41.23 41.33 43.11 43.10 40.91 41.94 42.43 41.69 41.73 37.77 35.50 34.79 33.37 32.04 30.68 28.53 27.31 24.60 23.32 22.43 21.70 21.16 20.19 19.29 18.29 17.49 16.63 16.60 15.42
38.57 32.87 35.36 36.94 38.55 38.19 36.61 35.33 34.17 31.23 33.51 31.77 35.29 35.94 39.23 41.06 41.86 43.08 44.11 43.67 43.26 43.13 39.65 40.45 37.86 35.42 33.67 32.19 30.26 28.90 27.42 24.77 23.23 21.85 20.98 20.47 19.49 18.07 16.79 15.83 15.55 14.77 14.11 13.93
35.69 32.72 34.57 31.49 35.63 35.06 33.08 35.50 36.38 36.04 35.55 35.13 34.77 33.61 40.35 41.83 42.67 41.81 42.21 42.18 41.42 42.13 42.59 39.60 35.57 33.26 31.35 30.32 28.49 26.08 25.36 22.62 21.61 20.76 19.70 18.26 16.33 14.93 14.32 13.39 12.35 11.82 12.04 12.10
33.22 32.88 31.53 28.13 33.42 32.80 28.37 32.00 33.76 35.28 37.47 37.00 32.61 37.66 41.65 40.69 40.81 41.24 42.19 42.07 40.48 41.25 41.87 41.50 34.99 32.68 30.88 29.03 27.30 25.00 22.83 20.63 18.54 18.03 16.47 14.52 13.77 12.06 11.90 10.67 9.96 10.02 9.99 10.39
35.00 32.97 32.47 28.34 31.19 21.63 33.20 39.38 38.09 35.83 36.97 38.50 38.34 39.69 40.99 41.26 42.23 42.70 43.96 42.26 41.57 41.94 41.53 38.62 35.67 34.27 31.03 29.71 26.68 24.56 19.75 17.91 16.96 15.98 12.53 12.46 11.20 10.01 9.49 8.58 8.34 8.82 9.90 9.53
38.43 34.74 29.95 26.69 26.45 31.14 31.27 35.39 34.11 32.78 33.05 38.77 37.62 38.76 40.28 41.33 40.31 40.86 43.06 43.35 42.74 43.39 43.88 42.58 37.01 34.05 29.97 27.41 24.75 19.61 17.16 16.86 15.54 13.06 12.32 11.22 10.08 7.67 7.15 4.74 6.91 8.00 8.58 8.36
36.66 37.03 31.14 29.32 24.31 22.82 33.86 38.18 40.02 36.49 27.95 39.88 39.17 38.40 38.51 37.58 33.24 38.49 43.98 42.49 41.70 41.46 37.93 31.43 29.98 28.54 25.90 22.28 18.91 17.15 15.92 15.28 13.63 13.48 12.16 10.61 8.31 4.67 3.99 5.65 5.30 7.75 6.24 7.36
30.46 31.03 27.63 28.04 26.68 30.20 37.70 36.96 37.15 25.92 31.41 40.93 40.73 40.23 39.15 37.09 39.27 42.28 38.18 37.85 33.29 30.65 27.94 27.90 25.71 22.48 21.71 18.51 18.45 17.27 15.19 14.19 14.51 12.10 9.55 7.50 6.35 3.99 3.96 3.77 5.39 4.99 5.06 6.64
31.99 28.90 28.16 28.73 25.86 23.89 40.21 39.30 32.13 39.33 42.76 42.19 42.18 40.98 38.32 39.57 40.35 40.20 37.95 30.30 27.43 24.91 23.57 22.89 21.21 19.49 17.07 18.47 18.84 15.66 13.99 12.77 10.03 8.62 7.46 5.26 2.66 5.32 4.44 0.30 3.49 3.45 4.88 5.62
30.60 35.79 33.25 33.29 32.92 40.20 42.21 40.82 42.53 42.87 42.58 42.90 42.14 41.94 40.25 39.26 38.53 39.12 36.19 27.92 25.92 24.54 22.53 21.53 19.33 15.68 16.50 17.57 18.50 14.98 10.85 8.89 7.39 5.97 2.98 2.22 2.42 3.35 2.78 2.66 4.03 7.68 6.27 7.19
35.49 40.28 34.89 35.41 38.36 39.74 40.56 42.84 43.27 43.98 41.71 42.56 42.90 42.47 40.66 39.63 39.67 37.32 34.15 28.83 23.85 22.05 19.85 19.50 16.45 14.60 14.02 16.08 16.18 11.71 8.94 7.43 3.84 3.08 3.53 3.60 4.05 3.90 3.38 5.95 6.91 5.96 7.61 7.46
32.51 32.42 31.89 31.41 33.85 37.32 40.47 41.97 42.62 41.95 40.86 39.22 39.97 39.25 39.95 39.43 36.76 37.35 35.43 31.02 26.22 22.55 20.09 18.14 16.56 14.98 13.23 13.43 9.22 8.37 6.25 3.82 4.09 5.03 4.99 4.83 4.70 4.31 4.36 5.27 5.31 6.87 8.91 9.94
31.68 31.35 29.85 30.21 37.09 36.67 38.03 40.54 40.62 39.67 40.59 41.75 40.18 39.57 39.93 38.06 37.63 37.92 34.95 33.40 26.75 21.57 18.77 17.12 16.60 13.00 10.93 9.20 7.31 5.62 3.84 5.15 5.58 4.40 3.82 4.12 3.97 4.01 4.00 4.53 5.31 5.38 7.60 10.10

GFSCGP_sfc_wetblb_003.txt.gz
Wetbulb
48.40 45.10 43.35 45.98 47.49 46.80 45.50 43.64 42.59 45.08 47.64 44.38 43.89 44.13 46.08 48.40 48.50 48.23 48.53 49.00 49.18 50.08 51.95 49.17 48.99 48.73 46.61 45.13 43.55 43.00 41.94 42.28 42.16 41.10 39.62 39.48 38.63 39.74 39.39 39.63 38.63 38.15 37.65 37.12
44.55 41.61 46.54 47.72 45.82 45.12 44.74 42.41 42.31 45.79 47.53 42.24 43.01 42.58 45.83 47.22 47.39 47.96 47.69 48.12 48.73 49.87 50.08 47.80 47.59 46.84 45.04 43.22 42.82 42.74 41.82 41.58 41.46 41.34 41.06 40.82 40.40 39.74 39.66 39.41 38.48 38.10 37.01 36.53
42.81 45.24 45.57 44.76 44.74 42.26 42.80 41.63 42.72 42.90 46.10 43.92 41.53 40.12 43.49 46.17 46.65 47.02 46.97 47.79 48.46 48.71 48.70 46.62 45.57 44.50 44.21 42.42 42.24 41.87 41.94 41.59 40.99 40.69 39.61 37.89 37.29 36.95 36.56 37.16 37.59 37.49 36.84 35.97
44.20 46.51 44.51 43.15 41.82 43.86 39.89 45.40 44.55 42.69 40.96 37.56 41.66 34.19 41.94 44.27 44.99 45.42 45.11 47.31 48.76 47.41 47.34 46.61 44.90 43.50 42.61 42.36 42.91 42.11 41.62 41.09 40.64 39.46 37.53 36.46 35.88 35.67 37.61 38.30 37.75 36.47 36.26 35.37
42.62 43.21 40.89 40.96 42.50 45.06 42.20 41.68 41.67 41.72 39.63 39.75 39.30 36.33 40.04 41.18 40.94 42.61 45.29 47.61 49.77 48.62 46.64 45.40 44.30 42.82 42.60 42.30 41.66 41.70 41.21 40.47 39.54 38.53 37.31 36.78 36.86 37.72 37.64 35.99 34.78 34.99 35.51 35.18
42.25 42.70 43.07 43.83 40.20 42.08 41.37 40.10 39.22 38.77 38.28 32.75 38.89 38.48 38.54 41.65 42.15 43.89 46.02 47.39 49.31 47.62 46.41 45.66 45.20 43.77 42.41 42.26 40.86 40.77 39.73 39.02 38.73 37.74 37.09 36.74 36.37 35.91 34.54 33.97 33.33 33.90 34.28 33.95
42.09 41.28 42.54 41.88 39.93 39.99 39.99 39.49 35.11 34.70 32.96 31.87 41.45 37.42 40.38 44.43 44.63 45.21 45.46 46.65 48.77 47.00 46.17 45.46 43.93 42.06 41.54 40.57 39.86 39.84 39.22 37.86 37.90 36.80 36.32 36.20 36.13 35.84 34.28 33.95 33.18 32.46 32.15 32.04
38.44 36.75 39.87 41.25 41.91 42.58 38.19 40.54 36.10 30.49 31.15 34.77 35.06 33.79 39.81 46.16 46.71 46.45 46.42 47.19 47.24 46.26 46.35 45.58 44.83 42.64 41.17 40.08 39.29 39.09 38.19 37.54 36.74 36.16 35.87 35.91 35.65 34.89 34.01 33.21 32.17 31.20 30.72 30.87
37.74 37.76 38.49 40.86 41.12 43.32 38.85 34.67 42.13 36.67 35.07 31.83 36.64 40.80 45.29 46.76 44.91 44.89 44.50 44.93 45.31 44.86 45.26 44.76 44.46 42.89 41.60 39.82 38.44 38.25 38.09 37.64 36.33 35.51 35.15 34.63 34.12 33.04 31.78 31.23 30.69 29.91 29.75 29.13
41.83 36.31 41.31 35.33 37.65 38.83 38.42 40.70 35.08 35.97 29.64 28.09 34.22 36.80 37.92 42.39 42.64 43.95 43.56 44.13 46.26 45.88 45.43 45.00 44.20 42.62 41.65 40.60 38.73 38.51 38.33 36.76 36.11 34.79 34.16 33.03 32.10 31.53 30.76 29.85 28.22 27.94 28.09 27.47
41.99 39.44 37.33 35.61 34.51 37.56 34.65 34.83 35.38 35.71 36.80 30.89 29.70 34.81 42.38 42.75 43.92 44.12 45.58 46.06 47.14 47.06 46.09 45.16 43.54 42.85 41.80 40.33 38.72 37.85 37.40 36.38 35.37 33.78 33.04 31.62 30.30 29.47 28.74 27.35 27.02 26.73 26.32 25.20
41.30 38.06 33.93 37.60 42.12 40.72 40.40 38.38 38.51 32.78 31.48 34.62 33.87 34.47 43.60 44.16 44.57 44.30 44.72 46.12 47.42 48.22 48.01 47.40 45.40 42.75 40.76 39.42 38.78 37.79 36.76 35.82 34.97 33.32 31.37 29.59 28.65 27.17 26.02 25.46 25.51 25.18 23.61 23.23
40.16 34.70 31.08 33.57 35.46 34.38 34.89 37.83 38.39 39.15 36.75 32.14 30.08 33.68 44.01 44.32 44.76 45.56 44.06 45.60 45.77 45.26 46.35 47.15 45.92 42.63 40.90 39.54 38.40 37.46 36.37 35.42 34.17 31.50 29.17 27.61 26.41 25.14 24.63 24.56 24.14 22.90 21.52 20.78
42.27 36.73 34.16 31.16 35.41 38.92 35.38 35.58 36.50 36.10 31.84 32.27 33.01 35.71 40.51 42.23 42.96 44.37 45.28 46.13 46.11 45.81 45.75 46.44 45.46 43.43 41.67 39.44 38.13 37.09 35.57 34.97 32.17 29.38 27.15 25.54 24.44 24.20 24.22 23.37 21.99 20.65 19.79 18.62
37.99 31.44 34.92 37.06 38.80 39.16 37.70 37.31 36.47 33.58 34.85 31.91 34.85 36.10 39.88 42.16 42.92 44.27 45.72 45.46 44.72 44.81 44.98 45.06 43.79 44.51 41.39 38.64 37.16 35.62 34.51 32.84 29.87 26.77 25.35 24.14 24.12 23.84 22.18 19.84 18.76 18.00 16.94 16.40
38.26 31.14 33.11 30.65 34.22 34.43 32.58 35.48 36.86 36.58 36.81 36.76 36.55 35.11 41.76 42.95 43.88 43.32 43.80 43.99 43.32 43.67 44.00 43.72 43.11 41.32 38.45 36.15 35.23 32.77 32.90 30.28 27.08 24.95 23.81 23.58 21.71 19.61 18.59 17.69 16.63 15.29 14.58 14.44
34.16 32.66 31.18 27.29 33.23 32.06 28.03 32.68 34.97 36.34 38.60 37.98 33.56 38.69 42.94 42.54 42.94 43.38 44.00 44.43 43.51 43.77 43.05 41.08 41.50 39.87 37.84 36.33 33.35 32.05 30.69 27.96 24.26 23.21 22.15 19.98 18.39 16.57 16.23 15.05 13.47 12.61 12.73 13.33
34.99 32.69 32.27 29.32 31.72 22.03 33.11 39.43 38.66 36.23 37.78 39.79 39.74 40.79 42.28 42.88 44.39 43.82 45.02 44.24 43.39 43.16 42.09 41.52 40.42 40.76 37.13 36.01 32.84 30.91 27.87 23.83 22.13 21.15 18.68 17.23 16.21 14.62 13.87 12.27 11.77 11.92 12.13 11.88
38.84 35.08 31.00 27.34 27.22 31.27 33.44 37.45 36.38 34.91 34.84 40.21 39.24 40.63 41.85 42.70 41.60 41.16 44.56 44.79 43.62 43.89 43.87 43.90 43.66 41.69 36.91 33.29 30.96 26.99 23.67 21.13 20.49 18.95 17.03 15.62 14.71 13.00 11.34 10.59 10.76 11.72 11.60 11.61
37.08 36.82 31.91 30.13 25.53 23.34 33.53 38.81 42.11 40.59 29.43 40.85 40.58 39.97 40.13 40.30 33.76 38.45 44.18 42.04 41.08 41.95 41.83 40.28 36.78 34.21 32.12 30.02 27.36 22.78 19.69 19.41 18.81 17.32 15.18 14.57 13.81 11.49 10.17 9.78 9.95 10.77 10.31 9.97
31.05 30.80 28.29 28.37 26.99 30.35 38.73 40.08 40.08 28.83 32.90 41.64 41.16 40.53 40.24 37.91 39.74 43.06 40.47 40.22 40.47 38.20 33.98 32.75 32.10 30.09 29.48 26.64 22.97 20.06 19.15 18.05 18.80 17.09 14.10 12.46 10.82 9.46 9.38 9.03 9.58 8.11 8.13 9.79
32.73 29.95 28.30 29.05 26.34 24.45 41.28 39.73 34.02 39.73 43.18 43.49 43.33 42.55 41.08 41.80 42.40 41.94 42.45 41.64 36.61 33.82 28.87 29.53 26.83 25.62 24.65 23.17 21.66 20.05 18.23 19.42 16.64 13.43 11.18 9.26 7.58 8.04 6.70 5.35 6.00 6.35 7.08 7.46
30.82 34.85 30.16 33.11 33.19 41.01 43.18 42.32 44.28 44.78 43.34 43.23 42.86 43.67 44.24 43.04 41.76 40.64 40.67 39.91 34.77 34.18 28.25 26.64 25.36 22.72 20.86 21.53 22.01 19.55 19.18 15.09 12.78 11.01 8.70 6.48 5.70 7.73 5.68 3.78 6.22 7.14 7.84 9.67
29.85 34.03 31.59 30.43 35.26 36.41 39.05 40.93 41.52 43.15 40.33 41.07 41.83 42.02 42.89 41.74 41.14 38.76 36.84 36.26 32.16 29.29 26.89 24.66 22.41 19.63 18.44 20.06 21.34 20.31 14.29 13.78 10.99 8.25 6.76 5.57 5.00 5.26 5.16 7.53 7.93 9.19 9.38 9.29
26.30 28.21 27.25 26.45 29.29 34.58 36.50 38.45 38.43 38.42 37.31 37.54 39.01 39.67 40.43 40.93 40.22 39.69 38.84 38.03 34.70 30.11 26.79 23.78 21.39 20.14 18.65 19.37 19.99 13.89 13.05 11.61 9.56 8.05 6.93 6.09 6.47 5.89 6.26 8.43 8.14 9.51 10.24 10.79
27.40 25.47 22.88 22.16 31.17 31.10 32.33 32.88 34.13 33.02 33.02 34.38 34.76 35.67 38.13 39.68 39.00 39.67 38.38 38.89 38.58 34.69 26.69 23.01 21.75 19.96 18.31 18.41 14.27 12.47 11.52 11.64 9.77 8.00 7.72 7.10 5.99 7.08 6.95 6.18 4.61 9.38 10.76 10.86

GFSCGP_sfc_wetblb_006.txt.gz
Wetbulb
45.55 40.32 38.29 41.27 43.41 43.75 42.49 40.55 39.32 42.73 44.39 41.34 40.28 41.16 43.02 44.35 44.98 44.56 45.56 46.34 46.40 45.47 46.30 47.05 46.66 44.70 43.20 41.80 40.55 40.21 38.87 38.69 39.48 37.22 35.22 34.26 34.92 34.64 34.09 35.40 35.86 35.57 35.26 35.06
41.38 38.25 43.76 44.61 43.82 41.61 40.22 38.47 38.65 42.10 43.66 40.53 39.45 39.65 42.67 43.36 44.47 45.72 45.56 45.84 46.11 43.53 44.55 43.69 43.44 43.00 42.75 41.16 40.14 39.67 39.24 38.89 39.02 37.92 36.22 35.00 35.06 34.41 34.38 35.29 34.88 35.29 34.55 34.00
39.73 42.10 45.12 43.38 41.05 40.46 39.68 37.33 38.03 38.27 40.72 38.86 36.13 35.36 38.45 41.89 44.48 44.94 45.18 46.06 44.61 43.60 43.68 41.83 41.76 42.09 41.17 40.02 39.87 39.59 39.31 39.00 38.82 37.32 36.33 33.82 33.28 32.72 31.66 32.37 32.51 33.64 33.93 33.08
41.04 44.67 43.31 41.29 40.07 40.79 36.49 41.18 40.33 39.63 35.60 30.91 36.96 30.98 36.69 38.66 40.78 41.76 43.21 44.42 42.79 42.64 43.76 42.68 41.19 40.42 40.28 40.01 39.80 39.66 39.37 38.79 38.49 36.92 35.32 32.93 31.06 29.28 30.81 32.07 32.75 32.66 33.02 32.14
39.00 38.91 38.39 38.40 39.99 41.73 37.90 38.53 36.95 36.50 34.16 32.38 33.04 30.43 34.48 39.75 38.03 39.95 42.04 44.46 44.39 44.09 43.18 41.55 41.13 41.40 40.80 39.59 39.11 39.00 38.43 38.17 37.93 36.67 35.22 32.83 30.40 31.12 32.09 31.53 30.57 29.94 30.54 31.18
39.61 40.78 39.46 39.93 38.74 38.91 38.83 36.38 35.49 33.51 31.83 26.25 32.77 32.95 31.56 35.64 38.72 39.66 41.48 42.78 42.96 42.20 41.21 41.21 40.66 40.30 39.89 38.65 37.89 38.50 37.82 37.54 37.06 35.71 34.10 33.16 32.10 31.37 30.11 28.55 28.42 28.64 28.96 28.83
37.13 38.00 38.32 39.78 36.82 36.70 36.05 33.48 26.11 24.44 23.53 27.59 35.03 31.30 36.77 38.82 40.19 41.14 41.17 41.88 41.70 42.35 40.16 39.57 38.63 38.33 38.03 37.33 37.41 37.38 37.12 36.37 35.94 34.55 33.66 33.10 32.62 31.65 30.56 29.83 28.84 27.75 26.86 26.52
32.74 32.48 37.31 38.66 38.66 36.94 33.63 35.13 27.33 20.06 25.47 29.90 29.52 27.45 34.81 41.38 42.79 42.43 42.60 42.35 42.07 41.19 40.76 39.55 38.95 38.45 38.16 37.66 36.83 36.71 36.26 35.90 35.12 33.88 32.96 33.05 32.29 33.04 31.50 30.34 29.43 27.26 26.22 26.26
33.26 33.88 35.88 37.75 37.83 39.48 34.56 30.55 36.28 28.61 22.67 23.32 31.96 34.67 38.79 40.46 40.82 40.65 40.03 39.83 39.38 39.84 40.21 40.19 39.61 38.42 37.09 37.10 36.64 36.42 36.20 35.82 35.08 33.85 33.04 32.53 32.47 30.25 29.70 27.75 26.81 25.70 25.26 26.49
37.11 33.13 37.05 33.93 34.66 34.67 33.62 35.61 28.64 29.24 17.99 16.70 29.68 30.62 34.07 38.39 40.67 38.80 38.01 38.56 39.30 39.72 39.94 39.74 39.56 38.58 38.26 37.79 37.22 36.66 36.32 35.29 34.80 33.41 32.72 32.11 30.88 28.49 27.37 25.99 24.90 24.39 24.01 23.76
37.41 35.86 33.11 33.31 30.68 32.50 29.71 29.88 31.95 32.80 30.57 21.34 24.27 30.33 36.14 37.45 38.75 39.05 38.91 39.48 40.39 40.64 39.65 39.40 39.34 39.01 38.24 37.20 36.49 35.64 35.15 34.27 33.39 31.76 31.19 29.89 28.29 26.81 25.65 25.34 24.16 23.35 23.28 22.55
39.42 36.06 29.89 34.26 38.06 34.94 35.90 34.48 35.37 29.74 27.67 26.76 30.01 31.34 40.44 39.12 38.83 39.19 39.24 41.14 41.55 41.88 41.55 40.67 39.91 38.39 37.38 36.91 35.53 34.87 34.51 33.78 33.12 31.36 29.98 28.34 26.53 25.66 24.65 23.55 22.89 22.71 21.56 21.52
37.71 31.88 27.00 28.78 34.86 32.82 31.22 34.02 36.06 35.78 33.44 29.96 26.36 30.27 41.20 42.28 41.26 40.07 39.28 40.15 40.58 41.44 41.03 41.23 39.19 37.59 37.42 36.50 35.38 34.62 33.92 33.61 32.35 30.41 29.24 26.90 25.56 24.52 23.46 22.68 22.24 21.46 20.62 19.71
40.33 33.74 30.89 27.34 31.43 35.42 31.29 32.41 32.96 33.83 29.27 29.71 30.14 32.30 37.62 39.93 40.59 41.95 42.55 43.08 40.33 40.13 41.37 40.68 39.44 38.18 37.63 36.63 35.60 34.68 33.64 33.10 31.78 29.78 28.01 25.83 24.28 23.52 22.40 21.84 20.83 20.04 19.19 18.24
38.73 30.04 31.45 33.34 34.87 34.13 32.68 33.05 33.88 32.30 32.78 28.54 32.20 33.01 37.01 39.52 40.32 41.63 43.02 42.65 41.71 40.83 41.03 39.72 39.00 38.64 38.12 35.37 34.70 34.11 33.92 32.28 31.59 28.89 26.58 24.59 23.44 22.45 21.42 20.30 19.31 18.50 17.81 16.88
38.50 31.52 31.81 29.60 32.16 32.09 29.85 32.68 33.47 32.94 33.65 34.10 34.71 33.74 40.38 41.35 42.14 41.72 41.92 42.42 41.85 41.98 42.94 42.36 38.36 35.92 35.06 34.17 34.76 33.03 32.50 31.03 29.82 26.95 24.61 23.62 21.62 21.04 20.01 18.64 17.71 16.90 16.31 16.13
33.24 31.91 30.08 27.29 31.72 30.66 27.02 31.30 32.87 33.97 36.04 35.31 30.97 36.42 41.10 40.26 40.92 41.74 42.65 43.21 43.04 42.49 42.36 38.77 37.62 36.32 34.20 34.24 33.07 31.36 31.43 29.79 27.30 24.85 23.39 21.49 20.51 18.67 17.86 17.27 16.12 15.66 15.21 15.52
36.13 33.55 32.53 28.81 31.10 21.43 31.69 37.77 36.76 34.95 36.67 37.99 37.76 39.18 40.95 41.39 42.97 43.52 43.21 41.33 41.86 42.72 42.77 41.04 35.33 36.32 35.20 33.08 29.88 28.89 28.72 26.97 25.15 23.37 21.82 20.11 18.75 17.50 16.54 15.70 15.07 14.71 14.80 14.29
39.86 36.16 31.21 27.46 27.14 30.83 32.13 36.01 34.68 33.05 33.19 38.89 37.97 39.65 40.86 41.90 41.64 41.58 44.76 44.68 44.07 43.46 43.70 42.64 37.20 36.28 35.06 30.71 29.08 27.83 25.52 23.70 22.16 20.88 19.68 18.27 18.20 16.64 15.35 14.23 13.71 14.19 14.13 13.83
37.57 37.95 33.04 30.93 26.11 23.56 32.61 38.13 40.54 39.54 29.29 39.43 40.35 39.73 39.59 40.12 33.90 37.90 43.61 43.22 39.09 39.47 38.85 37.38 35.78 34.27 30.60 26.74 27.04 25.36 22.52 21.17 20.38 20.30 18.99 18.06 17.41 15.51 14.34 14.16 13.66 14.23 14.12 13.27
30.68 31.59 29.22 29.89 27.94 30.60 36.74 38.58 38.61 26.77 31.13 40.46 40.93 40.67 39.92 37.06 38.77 41.54 39.01 37.60 36.56 37.00 36.72 33.04 31.53 30.80 27.98 26.02 24.93 23.07 20.93 19.86 21.13 19.98 17.66 15.99 15.44 14.05 14.48 13.00 12.78 12.22 11.78 12.37
29.46 27.52 27.49 29.07 26.09 23.58 35.93 35.13 31.27 35.09 36.04 35.59 35.47 36.84 36.06 38.33 39.60 38.99 38.14 36.01 34.92 34.58 30.63 29.65 26.29 25.36 24.37 23.97 23.59 21.53 19.57 20.63 19.49 17.43 14.79 13.82 13.32 12.70 12.49 11.40 10.12 9.01 10.14 9.62
22.36 23.84 20.14 23.49 25.20 33.85 33.52 29.91 32.46 36.53 32.34 33.11 33.89 34.63 35.32 35.17 36.29 37.26 36.68 37.07 36.28 33.58 28.83 24.21 24.03 21.75 20.60 21.40 22.09 20.14 19.66 18.65 16.29 13.94 12.21 9.76 9.99 9.09 9.01 8.36 7.03 7.85 8.56 9.58
22.74 27.48 22.57 21.89 29.69 26.58 27.56 31.63 33.76 32.52 30.11 30.93 31.21 31.58 33.69 33.58 34.81 34.22 34.90 35.64 34.92 29.38 29.94 22.96 21.53 21.11 19.05 17.81 20.08 18.27 18.26 16.61 13.00 10.82 9.38 7.99 7.40 6.11 6.89 9.06 8.98 9.39 8.66 10.18
20.33 21.77 18.65 18.80 23.82 26.34 28.16 30.18 30.30 29.83 29.47 28.45 30.49 31.36 31.76 32.24 32.26 34.05 35.39 35.89 35.85 32.08 26.33 23.42 23.77 24.35 24.18 20.23 20.31 18.71 15.27 13.74 12.10 9.64 7.89 7.45 6.82 6.70 7.39 9.37 9.82 11.06 12.18 12.18
22.49 20.41 17.66 16.29 24.72 24.23 24.86 27.07 28.67 23.84 22.73 24.20 26.73 27.25 27.92 29.39 29.61 31.62 31.77 32.06 31.63 32.35 31.05 24.15 24.05 24.55 23.57 20.14 19.39 14.54 13.84 12.93 11.31 10.45 8.04 6.85 6.28 7.44 8.40 8.53 10.24 15.54 14.58 16.75

GFSCGP_sfc_wetblb_009.txt.gz
Wetbulb
42.16 36.56 34.96 39.13 39.57 38.34 36.55 34.73 34.01 39.75 42.13 40.12 40.26 39.67 42.11 43.78 41.49 41.26 42.19 43.65 45.06 45.51 45.73 44.07 45.18 45.54 44.15 41.05 39.98 39.37 39.07 39.35 39.45 37.99 35.63 34.89 35.09 33.08 32.69 33.28 34.52 34.03 33.73 33.83
38.08 35.15 40.88 41.07 40.86 39.16 37.92 35.95 35.33 39.66 40.37 38.76 38.27 38.91 41.83 40.90 42.58 43.93 43.69 43.86 44.94 45.53 42.80 42.87 41.96 41.34 41.70 39.75 39.87 39.38 39.28 38.92 39.22 38.77 37.78 34.80 34.96 32.13 32.83 33.41 33.30 33.72 33.37 33.15
37.83 39.48 43.08 41.50 39.40 37.73 37.98 35.75 36.82 36.09 38.49 37.25 35.16 33.91 37.41 40.70 41.61 43.73 45.00 44.89 45.51 45.37 41.63 40.50 39.50 40.97 40.68 39.18 38.45 38.93 38.96 38.85 38.74 37.75 35.67 32.41 32.49 31.49 30.89 31.47 32.06 32.48 32.82 32.39
37.74 42.11 40.52 37.76 37.32 39.15 36.02 39.06 38.72 36.63 32.43 31.14 33.65 29.46 34.40 37.94 38.99 40.09 42.82 43.51 43.37 40.25 40.68 40.20 39.61 37.94 39.63 39.55 39.23 39.44 38.47 38.29 37.99 36.50 35.95 32.99 34.32 32.92 33.65 34.18 33.07 31.74 32.30 31.32
37.01 36.57 36.21 36.74 38.94 39.25 37.54 37.53 35.79 33.75 31.59 29.68 31.64 28.60 32.09 36.97 36.17 39.42 42.26 42.83 43.27 41.49 39.87 39.81 40.40 42.12 40.25 38.91 38.53 38.45 37.75 37.66 37.43 36.80 36.56 34.24 33.41 33.55 29.45 30.11 30.73 30.17 29.90 30.46
36.44 37.77 38.28 38.15 37.03 38.32 37.59 34.29 33.32 31.27 29.28 26.14 30.15 30.88 32.23 33.22 37.01 38.37 41.64 41.97 43.46 43.23 41.10 41.02 40.75 39.34 37.89 36.88 37.28 37.41 36.68 36.81 37.24 36.32 35.69 34.29 33.05 30.26 29.07 29.64 30.21 29.99 29.56 28.90
33.52 35.74 36.73 38.77 34.96 34.97 34.43 31.52 24.41 22.37 21.07 25.80 32.66 28.66 35.50 36.65 38.71 40.21 41.39 41.86 42.80 40.02 39.63 38.13 37.57 38.18 37.04 35.41 36.24 36.71 36.16 35.79 36.09 35.86 34.53 34.18 33.34 31.82 30.67 30.51 30.78 28.77 28.26 26.93
29.70 30.97 34.82 37.49 37.73 34.06 31.54 32.99 24.86 18.14 23.83 29.26 27.94 25.08 32.25 39.47 41.06 40.77 41.02 42.74 39.57 39.28 38.95 38.22 37.84 37.87 37.06 36.86 35.46 36.52 35.49 35.66 35.07 35.12 34.07 33.82 32.56 32.62 31.96 31.07 30.67 30.14 29.46 27.95
29.59 31.69 34.52 35.29 35.69 37.86 32.13 29.95 35.22 26.95 14.89 20.28 30.88 32.47 36.08 38.22 38.81 39.00 39.65 36.28 38.59 38.77 37.80 37.85 36.47 36.68 36.32 36.10 36.00 36.35 35.76 36.26 34.93 34.48 33.99 32.86 32.22 32.55 31.30 30.11 29.53 29.13 28.00 27.15
36.82 30.60 35.94 33.59 33.96 33.69 32.99 34.47 27.09 26.91 17.54 14.62 28.98 26.21 32.79 36.83 39.84 41.22 37.14 37.20 37.58 38.07 38.34 37.98 37.31 36.90 36.31 36.92 36.86 36.33 36.57 35.98 35.09 33.98 33.67 32.70 32.10 32.60 31.51 28.85 28.01 26.47 26.10 25.58
36.48 34.65 33.49 31.81 30.48 31.28 30.14 30.06 31.48 31.10 26.56 25.76 24.69 29.98 35.15 34.73 37.08 37.76 36.94 37.42 37.84 38.65 38.21 38.44 38.42 38.49 37.93 36.69 35.87 35.47 34.87 34.38 33.94 32.66 32.83 32.06 30.95 30.40 29.05 28.76 27.33 25.89 25.04 23.98
37.01 34.13 27.59 32.32 34.43 34.47 34.20 33.39 33.76 28.97 26.19 25.29 28.88 30.65 42.25 37.94 37.48 37.57 37.91 38.52 36.64 39.01 39.97 38.62 37.92 38.25 35.53 35.68 34.85 34.66 34.55 34.11 34.17 33.06 31.37 30.79 29.02 27.79 27.67 27.03 25.05 24.13 23.91 23.01
37.89 31.93 27.49 29.16 34.23 30.71 31.64 32.89 34.47 33.80 30.53 27.65 24.64 28.16 41.75 41.93 41.87 41.68 37.47 37.31 39.03 40.12 39.83 39.19 37.99 36.85 37.61 36.75 35.52 35.29 34.71 34.20 33.40 31.80 29.86 29.24 27.55 26.68 26.26 24.55 23.20 23.50 22.35 21.58
41.68 33.09 31.03 28.00 32.40 34.99 30.49 31.76 32.84 33.90 28.74 30.02 29.57 31.47 36.77 39.04 39.73 41.32 41.96 43.15 43.05 41.54 39.78 39.91 41.36 39.06 36.56 36.67 36.34 35.20 34.18 33.81 32.43 30.17 29.54 28.08 27.38 26.58 25.06 23.21 22.81 22.30 21.74 20.12
38.89 30.58 32.62 33.79 34.87 34.85 33.79 33.38 33.54 31.48 32.63 28.36 31.52 32.24 35.41 38.24 39.51 40.87 42.54 42.66 42.01 38.69 38.90 39.69 39.87 38.77 37.22 36.36 35.30 34.85 34.78 32.51 31.48 30.03 29.14 27.93 26.99 25.88 23.14 22.48 21.89 20.78 19.82 19.06
38.63 32.67 34.42 31.58 33.59 33.01 31.38 33.63 34.06 34.03 33.99 33.23 33.66 33.20 40.21 41.94 42.78 41.92 42.48 42.91 41.94 41.94 42.50 41.11 38.63 37.37 36.34 35.38 36.47 34.49 34.03 31.48 30.81 29.76 28.37 27.36 24.36 22.21 21.85 21.72 20.43 19.32 18.78 17.58
36.03 32.73 32.25 28.92 33.04 32.14 27.71 32.50 33.43 33.79 35.26 34.20 29.85 35.33 40.12 39.43 40.47 41.56 42.36 42.79 42.12 42.49 42.62 40.70 38.67 37.24 35.00 35.08 35.08 33.15 32.59 29.94 29.51 28.87 27.25 24.33 22.60 21.45 21.37 20.90 19.53 18.60 17.33 17.37
34.26 32.75 31.85 29.20 31.13 22.43 31.30 36.20 35.99 34.46 35.77 37.41 37.23 38.65 40.32 40.82 42.34 43.21 44.19 42.84 42.80 43.82 43.12 38.30 36.16 36.59 35.46 34.85 32.40 33.21 28.05 28.76 28.94 27.44 25.40 22.82 21.85 21.30 20.32 18.83 18.26 17.11 16.52 15.43
38.04 34.80 30.42 27.42 27.26 30.39 32.74 33.31 33.63 32.06 32.06 37.69 36.41 38.74 40.03 40.74 41.03 40.61 42.55 40.73 41.71 41.59 42.51 41.19 39.07 37.85 35.68 34.50 32.37 28.70 26.72 27.22 26.78 25.15 23.64 22.09 21.76 20.33 18.34 17.45 16.82 16.50 15.48 15.16
35.76 36.75 31.77 29.12 24.22 21.41 32.40 35.00 38.20 38.62 29.13 30.44 31.33 31.32 31.91 34.63 29.52 33.37 38.49 37.57 37.26 37.57 37.57 35.39 35.21 34.82 34.12 29.83 27.42 27.10 25.84 25.22 24.69 24.63 23.50 21.73 21.27 19.54 17.45 17.50 16.18 15.87 15.30 14.64
25.67 29.68 28.05 28.68 26.37 28.14 30.75 28.05 33.63 27.68 20.76 28.84 30.86 30.02 29.28 29.49 32.50 34.81 36.16 35.34 35.53 35.23 34.64 33.37 31.72 29.24 27.33 24.55 24.35 24.23 23.13 23.56 23.60 21.94 20.92 19.43 19.57 18.75 18.08 16.81 16.01 14.40 15.03 15.59
21.35 19.53 20.22 21.12 22.35 20.48 29.24 28.15 18.11 23.66 29.65 29.43 28.40 28.10 27.35 29.60 31.42 32.66 34.13 33.90 33.74 33.85 35.07 34.31 28.72 28.33 23.77 23.26 23.38 21.90 21.69 20.77 19.56 19.89 18.02 17.95 17.99 16.90 15.80 14.32 13.54 13.85 14.17 13.08
16.43 19.79 16.95 19.24 18.61 24.44 29.35 26.26 29.18 31.69 28.13 26.85 26.67 28.23 29.53 29.48 30.19 31.49 32.46 33.41 34.46 35.18 34.56 34.56 27.63 25.66 21.22 22.15 24.59 24.11 20.86 19.42 17.87 17.48 16.88 15.74 14.78 14.30 13.52 12.52 11.48 11.25 11.99 11.49
19.22 23.61 18.61 17.28 22.04 23.39 25.08 28.18 28.59 27.77 26.50 27.27 27.24 25.30 27.07 27.95 29.33 27.79 28.72 30.23 31.09 31.39 31.88 34.18 33.19 30.85 30.24 24.06 23.75 25.63 20.56 19.30 16.41 14.25 13.92 12.80 12.64 11.12 11.64 12.43 11.61 11.51 10.82 11.33
18.45 21.07 15.84 16.35 21.09 22.79 25.23 26.35 24.96 25.44 24.65 22.85 22.04 23.93 23.73 22.30 22.00 23.31 23.42 24.95 27.72 29.87 31.28 31.89 31.30 30.79 30.92 29.63 24.45 23.51 20.30 19.61 17.84 16.80 13.44 12.69 12.04 10.87 10.80 11.61 11.79 12.05 13.60 14.61
21.92 19.52 16.27 14.41 22.92 19.53 21.18 22.14 23.70 18.98 18.15 18.44 19.40 18.04 19.40 19.37 18.28 19.55 20.41 21.66 22.78 23.94 26.56 29.07 31.00 29.42 30.97 31.82 25.67 23.79 20.53 19.02 17.23 14.17 12.47 12.32 11.00 10.57 10.19 9.69 11.15 17.29 16.83 19.49

GFSCGP_sfc_wetblb_015.txt.gz
Wetbulb
38.42 34.56 32.89 37.63 37.00 35.28 32.67 31.23 31.01 35.13 38.09 34.77 35.60 37.09 40.01 42.91 42.69 42.11 39.67 42.77 44.05 44.71 47.21 46.01 42.94 42.21 41.84 40.99 41.61 41.36 40.04 40.50 40.56 38.52 36.96 37.38 37.59 36.86 36.25 36.14 35.57 34.65 34.00 33.32
34.59 31.98 38.85 37.73 36.62 35.64 34.66 33.84 33.45 37.46 39.60 34.19 35.60 35.98 38.95 39.78 41.28 43.47 44.05 43.83 43.64 44.14 44.83 45.31 40.40 39.97 40.30 41.57 41.40 41.04 40.40 39.77 40.36 40.19 40.32 39.13 39.49 35.44 37.41 35.45 34.26 34.11 33.29 32.55
35.35 36.53 39.73 37.32 35.14 34.17 33.19 31.67 34.48 33.96 34.97 33.92 32.40 33.88 35.96 37.73 40.40 42.42 43.28 44.02 44.65 44.28 44.25 45.14 40.12 39.01 38.59 38.95 39.81 40.47 40.24 39.53 40.46 40.38 38.33 32.23 31.89 30.61 30.54 31.63 33.10 33.28 33.06 32.16
34.68 38.65 37.88 34.55 33.62 36.03 33.54 36.32 36.26 34.22 29.56 28.42 32.28 27.87 31.58 36.19 37.99 38.13 41.07 42.45 42.49 43.10 43.75 43.79 41.18 38.09 37.90 40.15 39.06 39.91 39.69 38.83 40.07 39.23 37.43 36.82 36.70 35.09 34.53 36.25 34.85 33.17 32.35 31.45
33.85 34.20 33.25 33.42 36.53 36.46 35.07 34.85 33.55 30.46 27.75 27.29 27.11 24.90 30.25 34.18 34.48 36.98 39.98 41.05 42.73 42.33 42.28 43.22 40.23 39.44 39.96 37.50 36.64 37.62 38.00 37.89 39.29 38.59 38.10 37.73 36.94 37.52 34.11 31.86 31.11 31.87 30.76 31.00
34.84 35.45 36.32 36.23 35.64 36.05 35.23 32.71 30.89 27.88 27.47 23.57 30.18 29.00 31.66 31.54 35.36 35.87 38.73 40.59 41.54 42.60 42.35 39.87 38.31 37.94 36.42 34.48 34.55 35.89 36.51 36.83 37.90 37.38 37.20 37.24 37.09 32.91 31.45 30.63 31.34 31.20 30.71 29.99
30.02 32.46 33.62 36.95 33.05 32.78 33.66 29.84 23.42 21.00 19.81 23.85 29.02 26.98 35.11 37.76 37.18 38.15 41.06 40.20 39.83 39.68 38.96 39.15 37.75 37.43 34.66 32.83 33.54 34.68 35.66 35.72 35.72 36.00 36.28 36.18 36.21 33.98 33.43 31.56 32.71 30.70 29.94 29.26
27.51 30.01 32.66 34.88 35.24 32.27 31.04 31.62 24.86 16.16 23.10 28.68 27.54 25.26 36.21 37.78 38.80 37.24 36.99 38.22 37.72 38.63 37.61 37.79 38.62 36.36 34.71 33.58 32.65 34.58 34.25 34.84 34.58 35.25 35.56 35.67 35.54 34.79 33.64 32.44 32.90 31.61 31.66 31.36
27.91 29.80 32.36 34.04 34.15 36.52 29.21 27.89 33.67 27.79 21.89 21.36 30.28 32.91 38.14 35.54 36.17 35.15 36.60 36.35 37.40 35.59 36.05 36.82 36.40 35.41 35.05 33.21 32.08 33.20 33.50 34.75 34.48 34.57 35.14 34.92 34.80 34.14 32.93 30.72 31.62 32.01 31.55 30.87
35.58 30.40 35.79 32.04 32.27 32.69 32.76 33.20 26.06 24.96 19.82 18.63 25.32 28.90 31.64 36.07 38.67 37.40 35.87 36.05 38.34 36.94 37.31 37.85 37.01 36.08 35.01 34.22 33.30 33.11 33.15 34.64 34.59 34.14 35.04 35.04 34.16 33.80 33.08 29.88 30.39 30.80 30.30 29.46
35.31 33.72 33.14 33.84 30.29 32.93 28.71 28.37 29.30 29.37 28.12 25.47 24.26 28.58 40.02 38.53 36.31 36.28 35.75 36.46 37.97 38.25 39.17 38.68 38.50 37.65 36.34 34.62 33.48 33.03 33.25 33.69 34.16 34.01 34.29 34.24 33.00 33.28 31.98 30.09 30.46 30.46 29.45 28.52
37.12 34.41 30.65 32.65 32.18 32.39 33.37 31.60 31.87 27.84 26.62 28.94 29.38 30.31 42.17 42.02 39.37 35.66 39.76 42.45 42.14 38.39 38.07 38.33 38.95 39.80 39.19 37.05 34.40 34.28 34.12 33.90 34.43 35.04 33.61 32.91 32.64 31.93 31.14 30.72 30.00 30.19 28.48 28.27
39.26 34.14 28.82 30.73 31.96 33.06 32.75 35.93 35.81 34.58 32.21 27.02 24.16 27.77 40.83 41.69 41.61 42.53 40.88 38.88 38.18 39.38 42.40 41.50 38.57 37.84 38.02 38.16 37.13 34.79 34.88 34.93 34.18 32.04 31.39 31.72 31.72 30.45 30.80 31.37 29.97 28.95 28.62 27.38
41.79 36.40 33.13 28.49 31.41 34.38 30.91 32.22 34.08 34.48 29.24 29.42 29.76 31.56 36.24 38.62 39.87 42.02 43.43 41.79 40.75 39.02 36.90 36.23 36.22 36.56 37.68 38.35 37.56 35.89 35.10 33.91 32.18 30.73 31.22 31.66 31.12 30.38 31.31 31.42 29.64 27.72 28.24 26.77
37.13 31.41 33.41 33.01 33.30 33.29 32.52 32.27 33.09 32.18 33.61 28.86 31.42 32.85 36.03 38.79 39.50 37.71 35.70 35.94 34.33 34.44 34.78 34.65 34.97 34.78 35.40 36.00 37.40 38.52 37.36 33.00 31.52 31.37 31.66 31.63 32.03 31.35 30.70 29.90 28.59 27.82 27.42 26.83
33.14 26.00 28.89 26.18 29.06 29.18 28.16 30.29 32.28 33.07 31.72 30.72 30.09 30.31 31.19 29.31 28.49 26.14 30.32 29.13 28.97 29.86 31.98 33.49 33.92 34.27 33.95 34.95 35.57 36.06 36.35 36.00 30.89 31.06 31.06 32.01 29.64 28.13 28.64 28.98 27.69 26.68 25.85 25.14
27.33 26.41 21.37 19.04 24.39 22.80 18.00 24.31 27.24 29.72 32.31 30.99 26.15 24.94 26.34 24.35 24.65 25.28 27.43 27.58 28.40 30.13 31.82 32.49 32.55 33.20 33.25 34.23 34.45 34.47 33.04 32.97 32.86 31.36 31.85 30.35 29.15 28.12 27.85 28.09 26.20 25.34 24.70 24.09
23.67 22.10 15.63 14.11 13.36 2.46 21.15 27.06 26.26 25.73 25.62 25.93 24.66 24.62 24.49 24.44 25.53 27.50 30.94 27.30 28.45 29.83 30.90 32.93 33.84 33.47 33.37 34.13 33.57 32.61 31.16 30.73 30.55 30.40 30.12 27.16 26.91 28.08 26.27 25.35 24.67 24.55 24.29 22.95
26.53 23.27 12.70 9.83 4.49 18.25 23.57 20.98 18.46 18.48 20.59 25.18 23.62 24.14 24.21 24.22 24.15 25.59 28.72 29.00 28.83 29.74 31.66 33.34 31.99 32.37 33.13 32.52 32.50 30.91 30.16 29.75 27.89 28.21 26.98 25.78 26.08 26.89 23.90 24.18 23.49 23.73 23.37 22.16
24.03 25.32 21.36 5.48 6.55 7.32 18.73 20.47 24.83 23.69 16.29 25.48 24.42 23.33 22.69 22.65 14.53 18.86 27.02 28.25 28.54 30.28 31.76 28.43 29.57 30.87 31.32 31.75 31.99 30.22 29.47 28.78 27.33 27.50 26.26 23.86 24.03 25.57 23.79 23.94 22.58 23.28 23.33 22.41
3.58 0.92 1.93 -0.83 4.74 11.43 18.82 20.65 23.15 10.17 12.28 19.82 22.35 23.04 21.27 18.36 20.26 24.46 26.51 26.21 28.88 28.54 25.88 27.16 26.46 26.35 27.91 30.28 30.63 30.09 30.32 29.70 28.09 23.37 22.08 19.85 19.70 20.23 20.53 21.54 21.03 21.95 21.62 20.80
8.44 -0.17 -1.44 -2.28 -5.68 2.72 21.21 20.69 14.65 19.03 23.70 25.47 25.39 23.78 22.72 23.40 23.47 23.32 24.17 24.24 23.43 23.21 23.82 24.64 24.08 25.00 25.57 26.00 26.92 27.43 28.39 30.77 26.95 22.01 19.68 18.15 16.75 19.18 17.85 20.37 17.84 16.21 18.60 17.80
7.37 13.39 7.85 11.09 9.91 22.48 23.95 22.78 25.31 26.12 24.21 23.43 22.60 23.35 23.45 22.00 20.77 22.16 21.42 21.02 21.73 21.83 21.90 22.15 22.07 20.52 21.51 23.15 22.76 21.28 23.32 26.05 30.12 26.09 23.39 21.72 22.02 20.97 17.93 19.88 18.61 17.35 17.66 17.90
18.20 22.09 16.37 13.57 20.52 20.76 23.37 24.96 24.94 25.36 23.67 24.07 24.08 22.18 21.08 18.87 20.38 20.32 19.65 19.67 19.36 19.17 19.12 20.15 18.20 16.94 16.64 18.04 19.06 19.56 20.84 23.96 22.15 25.45 25.65 22.51 20.31 19.58 19.67 19.93 19.12 18.64 17.16 17.42
18.93 18.57 15.50 16.51 20.95 22.43 23.72 24.70 25.10 24.68 23.37 22.93 21.88 20.66 19.34 18.80 17.76 18.02 17.10 16.70 17.14 17.44 17.57 16.75 15.29 13.97 13.56 15.26 14.82 15.78 17.16 17.40 16.84 19.83 23.79 22.61 20.07 19.20 17.92 18.89 18.45 19.12 19.81 20.52
21.82 19.06 16.04 14.40 22.78 22.03 22.85 25.84 24.59 21.61 21.20 19.44 17.51 17.13 18.73 17.92 16.24 16.21 14.46 15.62 15.57 14.70 14.52 12.70 11.63 10.68 9.99 10.09 9.90 10.41 12.30 12.69 12.91 13.87 17.85 22.05 20.30 18.64 18.16 17.66 17.35 23.75 23.78 23.76

GFSCGP_sfc_wetblb_021.txt.gz
Wetbulb
37.62 34.06 32.50 36.89 35.86 34.04 31.71 30.60 29.92 33.13 36.78 34.41 36.64 36.89 37.97 40.60 39.92 41.01 42.71 43.75 43.66 43.95 46.20 46.74 45.46 45.23 43.80 43.12 43.37 43.61 42.28 44.21 45.86 45.72 43.51 42.63 42.28 43.52 42.35 43.42 42.58 41.72 41.48 40.01
33.69 31.07 36.87 36.19 35.05 34.42 33.33 32.52 31.74 35.36 37.53 33.57 33.97 35.56 39.45 40.71 41.35 42.25 42.70 43.21 42.80 42.72 44.87 45.12 43.66 43.11 42.66 43.52 42.33 42.75 42.30 42.69 44.10 45.28 45.09 45.25 44.74 43.63 43.36 42.57 41.50 41.36 40.83 39.57
33.35 35.58 37.51 35.82 33.55 33.27 31.15 30.18 32.38 31.71 33.30 33.62 31.34 32.06 33.28 38.24 38.63 40.54 42.18 42.72 42.52 42.33 43.01 44.34 42.69 42.46 42.49 41.44 41.10 41.70 42.10 41.90 42.78 44.17 43.61 37.33 38.98 37.74 38.76 38.96 39.00 39.01 39.59 38.92
33.05 36.43 35.92 32.58 32.38 33.94 31.23 34.56 33.95 31.88 29.71 26.65 32.44 26.33 31.16 36.78 37.77 37.96 39.14 39.18 40.02 40.28 41.42 41.39 40.82 40.29 41.22 42.47 41.09 40.92 41.39 41.19 41.50 42.65 41.52 40.82 41.29 39.48 39.87 40.98 39.95 38.83 38.49 38.18
33.47 32.80 31.85 31.92 34.13 34.22 33.02 33.57 31.90 30.89 28.47 27.02 27.23 25.35 30.26 32.88 35.96 37.45 40.07 40.18 41.10 40.81 39.21 39.40 39.11 39.69 39.73 39.85 39.48 39.38 39.86 40.18 40.80 41.23 41.49 40.38 41.09 41.43 39.15 41.01 39.06 38.07 36.98 37.59
32.81 34.40 34.78 35.14 33.89 34.85 34.35 31.63 30.36 27.91 27.46 22.63 28.33 28.04 28.55 32.14 35.33 36.05 39.75 40.88 39.67 39.54 39.28 40.36 39.64 38.95 39.48 37.89 36.98 37.37 37.71 37.49 38.68 39.76 40.22 39.57 40.17 38.27 37.36 36.75 37.14 36.20 35.65 35.40
30.53 31.95 33.71 34.49 31.71 33.50 33.20 29.45 23.80 21.62 20.74 22.96 27.09 25.87 31.20 35.36 37.46 38.13 39.57 39.33 39.12 37.77 37.76 38.90 40.67 39.61 38.33 36.89 35.10 35.65 36.03 36.30 37.41 37.99 38.71 38.74 39.65 38.68 37.61 36.67 37.33 35.58 34.74 34.18
27.00 29.71 31.99 34.17 35.13 33.76 31.16 32.27 27.24 21.85 19.12 25.66 27.62 26.78 32.80 36.96 38.66 37.70 36.55 37.50 38.17 37.89 38.21 38.13 37.32 37.22 36.97 36.19 35.40 34.81 34.65 35.01 35.39 35.55 36.70 37.14 38.30 38.31 37.27 36.70 37.29 36.13 36.14 36.02
31.76 29.86 32.31 32.39 33.70 36.30 30.72 29.25 33.66 28.36 27.97 23.30 28.43 32.43 38.73 37.98 36.89 35.69 36.36 36.17 35.37 35.05 35.04 35.07 35.52 35.86 36.26 36.27 35.91 34.92 34.19 34.39 34.93 34.89 35.25 35.67 36.07 36.24 35.98 35.01 35.81 36.00 36.32 35.96
36.55 31.89 35.83 34.67 32.09 31.14 33.23 34.84 28.18 27.45 21.76 21.62 26.99 27.37 31.21 34.56 35.16 35.23 32.84 32.83 33.83 34.41 34.29 34.81 34.99 34.92 35.62 36.21 37.30 37.76 36.94 35.08 34.97 34.66 34.45 34.88 35.12 35.47 35.98 33.82 33.19 33.99 34.81 34.83
37.17 35.60 33.79 35.03 30.51 31.32 29.04 28.60 29.62 29.49 29.41 25.30 24.28 26.91 37.44 34.40 31.01 31.30 32.13 32.92 32.04 31.73 33.03 33.56 34.60 35.28 35.45 35.92 35.91 36.10 36.18 35.56 34.82 35.25 34.58 33.52 33.81 34.16 34.31 32.77 32.88 33.30 33.47 33.21
37.55 35.38 30.72 33.05 37.71 33.83 33.83 34.38 33.57 28.07 26.45 27.73 29.11 29.45 38.54 32.07 31.49 31.23 29.35 29.76 30.40 30.82 31.49 32.75 33.78 34.65 34.97 34.94 34.94 34.95 34.74 34.75 34.00 34.01 34.11 33.67 33.13 32.35 32.01 32.50 32.32 32.64 32.41 32.16
37.91 32.59 28.70 28.86 30.90 32.73 33.26 35.14 34.40 33.08 31.81 28.09 25.36 28.17 37.56 37.18 30.23 29.54 27.86 28.11 29.33 30.25 30.74 31.54 33.10 33.66 34.35 34.13 33.65 34.03 34.07 34.13 33.52 32.81 32.64 32.78 32.92 32.01 31.87 32.12 32.41 31.43 32.14 31.77
40.80 33.34 31.31 27.14 29.76 33.58 31.11 32.19 31.51 29.68 24.01 25.79 26.55 26.81 31.69 33.46 26.83 26.45 28.51 28.29 28.46 29.03 29.59 30.12 31.22 33.39 34.41 32.24 31.67 32.58 32.99 33.23 32.88 32.25 31.74 31.57 31.97 32.22 32.48 32.51 32.24 31.64 31.29 31.70
36.37 30.23 31.25 33.03 31.75 29.43 28.41 26.79 26.78 25.11 26.46 22.71 25.18 25.58 29.75 24.96 24.15 25.23 26.97 29.14 28.49 26.99 27.99 28.86 29.68 31.03 31.77 29.94 30.46 31.22 32.19 31.60 31.80 31.29 31.07 31.03 31.46 31.64 31.62 31.33 31.34 31.17 30.14 30.45
31.61 25.24 26.28 23.37 25.81 26.11 23.09 23.32 23.88 24.44 25.08 25.36 25.92 24.52 24.86 25.78 25.41 24.39 25.20 27.22 27.59 25.62 26.79 27.86 28.91 29.61 30.21 27.77 28.42 28.68 29.76 29.63 30.22 30.05 30.32 30.80 30.40 30.28 30.04 30.70 30.47 29.92 29.22 28.45
25.74 24.86 20.39 18.02 22.78 18.65 15.14 20.38 23.48 23.77 25.00 22.69 19.10 20.30 22.43 21.81 23.19 23.26 23.83 25.47 26.20 25.39 26.54 26.72 27.42 29.64 27.14 26.29 26.99 26.25 26.83 28.41 27.12 27.98 29.49 29.82 29.87 29.00 28.77 29.20 28.88 28.49 28.69 28.88
23.86 21.24 17.43 15.59 7.57 8.40 20.13 21.67 22.18 22.52 23.71 21.17 18.15 16.88 21.10 21.71 24.30 25.24 26.10 26.71 24.98 25.40 25.99 26.55 27.21 28.06 25.76 26.05 25.34 25.83 26.44 24.27 25.08 25.86 26.22 26.61 24.89 26.08 27.74 27.24 27.38 27.50 27.86 27.57
25.09 21.07 3.78 2.01 -1.33 11.70 18.15 19.75 17.87 17.61 15.36 20.08 16.73 19.22 23.31 24.43 22.91 21.24 25.39 25.81 24.96 25.06 26.22 26.57 27.90 26.68 24.88 24.67 24.62 24.82 23.92 22.42 23.19 22.97 23.06 23.47 22.53 24.81 26.33 25.60 25.57 26.61 26.34 26.55
22.40 22.99 14.22 -7.21 -0.51 -4.50 14.55 17.99 21.26 20.37 8.30 18.01 16.09 17.51 18.98 22.04 11.65 18.94 23.64 25.15 24.82 25.28 25.33 25.85 24.05 23.49 23.66 23.14 22.92 23.37 20.84 20.43 20.64 21.03 21.17 21.52 20.61 22.67 20.45 22.65 24.75 25.53 25.73 25.40
0.02 3.39 12.48 11.31 8.75 7.99 16.81 19.32 21.70 4.71 9.12 15.34 16.92 19.90 20.35 18.92 21.41 24.99 24.16 23.85 24.43 24.03 24.20 23.22 21.91 21.89 21.94 21.87 21.36 19.63 19.31 18.76 19.93 19.37 18.86 18.39 18.51 18.81 19.29 20.82 23.51 24.42 23.95 24.82
8.94 -0.54 -5.64 -7.09 -4.45 1.88 17.41 19.08 13.53 18.79 22.95 21.38 20.94 22.61 22.03 23.36 24.62 25.49 24.76 24.42 23.54 21.85 22.78 22.93 20.96 21.03 21.87 21.12 19.19 18.26 17.38 19.21 17.48 16.73 15.86 14.52 14.21 15.16 16.39 16.46 19.22 23.05 22.72 21.97
7.93 12.64 6.98 8.61 8.06 20.03 20.77 21.46 24.97 25.77 21.94 23.54 21.82 23.58 22.85 22.96 23.71 24.52 22.76 21.95 21.52 21.14 21.73 21.61 19.18 19.27 19.82 19.81 18.03 15.49 17.28 17.18 15.40 11.94 10.92 10.90 11.44 12.13 13.02 13.69 15.51 18.05 22.19 20.45
17.47 18.86 15.40 16.40 20.26 20.32 23.60 25.83 26.00 25.36 24.16 25.39 24.56 23.12 22.72 21.58 22.74 21.71 20.62 20.53 20.28 19.96 19.16 19.01 17.20 16.26 16.22 17.71 17.55 15.75 15.50 14.41 9.14 8.11 8.54 9.21 8.97 9.54 10.38 12.34 14.38 16.73 20.79 21.22
19.54 17.93 15.11 16.83 21.04 22.45 23.54 24.60 25.37 25.76 25.02 23.13 22.33 21.81 20.32 18.71 18.06 18.42 17.55 17.08 16.99 16.66 16.39 15.79 14.47 14.16 13.95 14.94 13.85 13.37 12.37 9.47 6.62 6.06 6.59 6.44 7.23 6.95 8.09 10.41 12.22 14.71 18.82 22.35
21.96 19.43 16.59 15.07 22.38 22.08 22.85 25.32 23.03 21.82 18.88 17.33 16.63 16.01 17.27 16.56 14.97 14.58 12.91 13.60 12.99 12.30 12.17 10.75 10.31 9.49 8.93 8.67 8.02 7.99 7.78 6.21 3.70 2.72 3.13 3.76 4.29 4.73 5.92 6.94 8.67 15.80 19.50 23.16

GFSCGP_sfc_wetblb_024.txt.gz
Wetbulb
45.27 42.41 39.95 43.35 43.83 43.88 42.02 39.77 39.17 42.02 44.35 41.23 41.27 42.01 43.68 45.38 45.57 45.78 46.84 47.90 48.91 49.37 51.16 51.30 51.18 51.72 51.88 52.23 51.70 51.56 51.37 51.21 52.80 52.97 53.42 54.07 53.43 53.29 53.84 54.00 52.93 51.86 50.51 48.52
40.76 38.80 44.24 44.17 42.40 40.56 40.48 38.98 39.19 42.33 43.53 40.45 41.28 40.59 43.27 44.83 45.76 46.78 46.82 47.45 48.45 49.27 49.78 49.72 49.69 49.81 50.38 50.35 50.56 50.01 50.11 50.15 50.81 52.05 52.86 53.15 52.63 52.49 52.75 52.64 51.73 51.26 49.61 48.08
40.86 43.43 42.66 41.06 40.70 38.86 40.19 38.13 39.01 39.12 40.90 41.19 39.03 39.76 41.21 45.42 46.00 46.31 46.73 47.56 47.59 47.53 46.88 47.83 47.97 48.20 48.29 47.77 47.86 47.69 48.48 48.80 48.96 50.35 51.09 50.78 48.95 50.21 49.34 49.75 49.07 48.64 48.46 47.41
40.53 42.63 39.67 38.61 38.26 40.36 37.15 42.95 39.78 37.99 36.61 34.11 38.86 33.05 40.89 43.94 44.14 44.89 46.70 46.16 46.65 46.74 46.79 47.11 45.69 45.54 45.05 44.64 45.92 46.24 46.57 47.00 47.14 48.29 48.45 47.98 46.76 46.04 47.21 47.47 47.91 47.40 46.77 46.34
40.43 39.30 37.62 37.58 39.53 40.60 38.77 39.46 37.91 36.95 36.27 34.73 36.47 33.00 40.92 40.03 42.05 44.37 45.48 44.91 44.73 44.51 44.32 43.26 43.28 43.22 43.66 43.27 43.33 44.84 45.26 45.49 45.32 46.22 47.03 46.70 46.14 47.72 48.16 47.25 46.52 45.82 44.94 45.29
40.11 40.88 40.28 40.84 39.61 39.77 39.64 38.87 38.22 35.79 35.74 30.76 37.59 35.25 37.43 40.35 41.72 43.27 45.18 42.24 42.44 42.24 42.14 41.92 42.27 42.46 42.32 43.23 42.57 42.65 43.37 42.87 44.02 44.49 45.20 45.32 45.00 45.69 45.49 44.39 44.41 44.04 43.96 43.45
41.91 41.02 40.04 39.88 38.33 38.49 38.18 36.14 31.83 32.00 30.89 31.65 34.66 34.13 37.16 42.52 42.47 42.37 40.31 40.05 40.57 41.00 40.63 40.19 40.05 40.23 40.66 40.91 41.60 41.17 41.31 40.53 41.55 42.27 42.95 43.81 44.01 44.60 44.71 44.20 43.58 43.74 42.65 41.79
35.69 34.61 37.48 39.22 39.99 38.31 35.46 37.06 31.84 26.61 28.74 32.91 37.36 33.46 39.69 43.75 43.52 40.95 40.45 40.11 39.91 39.68 39.99 39.58 39.74 40.00 39.86 39.96 40.28 40.87 39.66 39.16 39.83 40.13 40.55 41.61 42.17 42.58 43.51 43.59 43.71 43.64 43.26 43.02
35.63 35.34 39.74 37.40 38.77 40.55 37.24 33.10 39.04 32.35 33.28 29.13 34.32 39.00 43.09 41.76 42.03 39.73 39.30 39.76 38.05 38.14 38.25 38.28 39.21 39.73 39.58 39.34 39.32 39.19 39.47 38.93 38.74 38.92 39.31 39.46 40.21 40.57 41.14 42.25 42.74 42.75 43.31 42.69
38.17 33.20 40.59 40.86 38.00 38.45 38.00 38.98 31.06 32.36 24.80 24.47 30.70 33.01 34.89 39.10 38.88 38.65 37.92 36.92 36.34 36.92 37.26 37.74 38.18 38.45 38.68 38.85 39.16 39.13 38.97 37.47 37.65 38.02 38.47 38.60 38.70 38.77 39.43 40.05 40.11 40.55 41.46 41.61
40.22 36.76 35.96 38.80 36.36 36.17 32.77 32.94 33.84 33.00 31.84 26.18 24.76 30.41 40.74 38.90 36.80 36.40 35.40 34.79 34.44 34.93 35.38 36.35 37.48 38.55 38.58 38.06 37.78 37.62 36.98 36.63 36.26 36.22 36.55 37.24 37.64 37.85 37.88 37.80 38.07 38.53 39.64 39.92
41.27 37.10 32.14 35.68 41.89 41.08 39.15 37.05 37.32 30.24 28.21 30.92 29.48 30.13 38.90 36.76 35.41 33.82 31.70 32.22 33.36 33.29 33.63 34.36 35.63 37.21 37.12 35.50 35.37 35.60 35.65 35.03 34.96 35.59 35.67 35.57 36.14 36.36 36.66 36.83 37.18 37.62 36.72 37.93
40.25 35.10 29.46 32.22 35.90 36.59 34.04 36.27 35.86 34.86 32.73 28.98 26.57 29.93 38.00 34.06 32.41 31.78 30.16 31.00 31.51 32.60 32.57 32.77 33.76 34.30 36.42 34.13 33.44 33.96 34.33 34.06 33.90 34.19 34.18 34.17 34.04 34.02 33.76 34.43 35.40 36.29 36.28 35.92
40.89 35.28 31.20 27.24 31.42 35.41 31.82 34.26 34.69 33.09 27.98 28.23 28.36 30.10 35.14 37.26 35.38 30.17 29.23 30.75 30.81 30.04 30.18 31.10 32.00 32.78 34.83 33.58 32.27 32.23 32.38 32.82 32.33 32.23 32.65 32.51 32.57 32.64 32.64 32.81 33.84 34.02 34.59 34.18
36.54 29.87 32.16 33.00 34.17 33.71 31.55 30.29 30.13 28.15 28.49 24.48 27.58 27.64 31.81 34.03 27.56 27.87 28.30 29.80 30.45 28.72 28.76 29.71 29.72 31.02 32.24 32.27 30.77 30.80 30.86 30.82 31.02 30.10 30.51 31.22 31.99 31.92 31.30 31.28 31.78 32.28 32.80 32.65
32.71 27.04 29.27 24.81 29.56 29.29 26.58 28.58 28.55 27.58 27.20 26.41 27.15 26.80 34.65 28.91 28.60 28.37 28.46 28.66 29.17 28.91 29.08 29.63 30.05 30.64 30.84 31.60 30.00 29.77 29.93 29.70 29.47 28.41 28.58 29.57 30.22 28.89 27.90 30.21 30.55 30.09 30.39 31.35
27.02 26.64 24.67 20.98 27.05 24.45 18.91 23.67 26.47 27.86 29.67 28.86 24.18 27.41 26.41 24.86 26.53 27.80 28.10 28.53 28.74 29.15 29.19 29.45 29.98 30.34 30.64 31.84 30.84 29.48 29.35 29.50 28.55 27.04 27.89 27.79 27.35 26.13 25.64 28.74 28.70 28.32 28.87 29.88
25.37 24.80 24.29 19.54 19.30 11.50 25.39 29.49 28.00 25.72 27.57 25.88 24.47 23.78 25.34 25.97 28.03 29.28 30.13 28.98 28.90 30.03 29.67 30.24 30.70 30.93 31.27 32.30 30.12 29.98 28.80 27.68 27.47 26.25 26.58 26.68 25.53 24.42 24.10 26.04 24.63 25.75 27.55 28.23
27.81 24.21 19.52 14.09 15.07 19.78 22.00 26.13 24.19 22.69 23.30 26.67 23.76 24.17 25.90 27.75 28.29 27.64 30.75 30.73 30.29 31.30 31.19 31.14 31.44 30.73 30.96 29.49 29.07 27.97 26.75 26.54 26.23 24.77 25.24 25.33 24.23 22.32 21.92 21.72 22.82 23.66 25.51 26.80
23.87 25.25 19.65 8.65 10.08 7.93 21.51 23.91 26.00 24.93 16.82 25.26 24.17 24.11 24.27 25.75 19.23 24.46 30.48 31.16 30.57 31.62 31.67 30.65 30.49 29.70 28.18 28.34 27.46 25.09 24.60 24.72 24.51 24.41 24.46 24.06 22.69 20.71 19.57 20.45 20.49 22.23 23.57 23.68
16.05 16.45 15.02 16.26 13.07 16.96 24.48 24.27 26.37 13.96 17.87 26.93 26.83 25.81 24.78 22.78 26.11 29.41 30.65 30.29 31.13 31.06 30.61 30.25 28.88 27.07 26.74 26.61 25.69 23.17 23.22 22.42 24.14 23.99 23.22 22.09 21.21 19.31 18.57 18.54 19.52 19.22 19.56 21.18
16.46 14.56 12.37 10.15 9.80 8.67 24.64 22.83 18.48 25.20 28.07 27.77 27.37 27.70 26.32 27.56 28.27 28.77 29.37 29.49 30.09 29.39 27.85 27.21 25.63 24.95 25.50 25.12 23.52 21.59 20.73 22.76 22.80 21.79 20.16 18.94 17.87 17.16 16.98 15.29 15.76 16.39 17.24 18.08
14.08 19.70 16.81 15.23 17.46 25.86 25.46 26.17 29.10 29.87 27.48 28.11 28.12 28.77 28.26 26.88 26.88 27.80 27.43 27.09 26.18 25.09 24.27 24.52 22.71 21.55 21.85 21.86 20.96 18.32 19.65 20.44 18.94 16.57 14.83 14.43 14.64 14.32 13.99 13.11 13.30 14.42 15.46 16.21
22.05 25.28 18.81 19.41 23.47 24.81 26.96 29.13 29.91 30.15 28.79 29.67 29.75 27.86 26.88 25.05 24.88 22.92 22.33 22.09 21.22 20.76 19.54 19.65 17.76 16.28 15.84 17.08 16.58 15.49 15.37 15.09 12.14 10.66 10.84 11.43 10.60 11.07 11.35 12.18 12.74 12.80 13.49 14.51
23.17 22.90 20.15 20.16 23.93 25.44 27.13 28.43 29.28 29.60 29.85 26.40 23.33 23.02 22.36 21.01 19.94 19.27 17.88 17.03 16.91 16.32 15.60 14.92 12.83 11.86 11.12 11.77 10.41 9.86 9.26 8.00 6.19 6.03 6.38 6.84 7.57 7.18 7.55 9.12 10.05 10.90 12.88 14.41
25.17 21.89 19.36 18.10 25.57 24.88 25.69 29.09 29.43 26.29 25.38 20.55 19.15 18.78 18.19 16.81 15.70 15.43 13.86 14.23 12.88 11.77 10.76 9.21 8.38 7.37 6.20 5.36 4.31 4.26 4.20 3.34 1.73 1.86 2.72 3.50 3.69 4.05 4.70 4.91 5.52 10.91 13.24 15.54